Location: Carthage
(33.8834°N, 106.6595°W)
Time: 13:06:33
(UTC+00:00)

Cosmos 1605 Rocket - Pass Details

Date: 13 February 2026
Orbit: 943 x 1005 km, 82.9° (Epoch: 11 March)

Event Time Altitude Azimuth Distance (km) Brightness Sun altitude
Rises 12:41:42 0° 199° (SSW) 3,714 6.9 -15.4°
Reaches altitude 10° 12:44:18 10° 204° (SSW) 2,770 6.2 -14.8°
Maximum altitude 12:50:29 51° 279° (W) 1,242 4.2 -13.6°
Drops below altitude 10° 12:56:41 10° 355° (N) 2,775 6.3 -12.3°
Sets 12:59:18 0° 0° (N) 3,722 7.0 -11.7°
